QPF
0.01 0.02 0.02 0.02 0.03 0.03 0.04 0.05 0.04 0.05 0.08 0.10 0.09 0.09 0.10 0.10 0.07 0.06 0.07 0.05 0.04 0.03 0.04 0.04 0.05 0.05 0.05 0.03 0.03 0.02 0.01 0.01 0.01 0.01 0.01 0.01 0.00 0.00 0.00 0.00 0.00 0.00 0.00
0.01 0.02 0.03 0.03 0.03 0.03 0.03 0.05 0.05 0.04 0.05 0.08 0.09 0.08 0.10 0.10 0.07 0.05 0.06 0.06 0.05 0.05 0.04 0.04 0.05 0.05 0.05 0.05 0.03 0.02 0.01 0.01 0.01 0.01 0.01 0.01 0.01 0.00 0.00 0.00 0.00 0.00 0.00
0.03 0.02 0.02 0.03 0.04 0.03 0.02 0.03 0.05 0.05 0.05 0.05 0.09 0.12 0.15 0.13 0.10 0.07 0.06 0.05 0.06 0.06 0.05 0.04 0.04 0.05 0.07 0.08 0.05 0.02 0.02 0.01 0.01 0.01 0.01 0.01 0.00 0.00 0.00 0.00 0.00 0.00 0.00
0.04 0.02 0.02 0.02 0.03 0.03 0.02 0.03 0.04 0.06 0.06 0.05 0.07 0.12 0.16 0.14 0.09 0.07 0.06 0.05 0.05 0.06 0.07 0.06 0.05 0.04 0.04 0.05 0.06 0.04 0.02 0.02 0.01 0.01 0.01 0.01 0.00 0.00 0.00 0.00 0.00 0.00 0.00
0.03 0.03 0.01 0.01 0.01 0.02 0.02 0.02 0.03 0.04 0.06 0.06 0.07 0.10 0.14 0.13 0.09 0.07 0.07 0.06 0.06 0.06 0.07 0.07 0.06 0.05 0.05 0.04 0.03 0.03 0.03 0.02 0.02 0.01 0.01 0.01 0.01 0.00 0.00 0.00 0.00 0.01 0.01
0.02 0.03 0.02 0.01 0.01 0.01 0.03 0.03 0.03 0.03 0.03 0.05 0.07 0.09 0.12 0.11 0.10 0.08 0.07 0.07 0.07 0.08 0.07 0.08 0.07 0.06 0.07 0.07 0.05 0.03 0.02 0.02 0.02 0.01 0.01 0.01 0.01 0.01 0.01 0.00 0.01 0.01 0.01
0.01 0.02 0.02 0.01 0.01 0.01 0.02 0.03 0.02 0.02 0.03 0.03 0.05 0.07 0.10 0.11 0.10 0.10 0.08 0.06 0.05 0.07 0.08 0.08 0.07 0.05 0.05 0.07 0.08 0.06 0.03 0.02 0.02 0.02 0.01 0.01 0.01 0.00 0.01 0.00 0.01 0.01 0.01
0.00 0.01 0.01 0.01 0.01 0.01 0.01 0.02 0.02 0.02 0.02 0.03 0.04 0.06 0.09 0.11 0.10 0.10 0.10 0.08 0.06 0.05 0.07 0.08 0.07 0.05 0.04 0.04 0.06 0.07 0.07 0.05 0.03 0.02 0.02 0.01 0.01 0.01 0.01 0.01 0.01 0.01 0.01
0.00 0.00 0.00 0.01 0.01 0.01 0.01 0.01 0.01 0.01 0.01 0.02 0.03 0.05 0.07 0.11 0.11 0.10 0.09 0.09 0.08 0.06 0.07 0.08 0.07 0.06 0.05 0.04 0.04 0.04 0.05 0.05 0.04 0.03 0.02 0.02 0.01 0.01 0.01 0.01 0.01 0.01 0.01
0.00 0.00 0.00 0.00 0.00 0.01 0.01 0.01 0.02 0.01 0.01 0.01 0.02 0.04 0.06 0.08 0.10 0.10 0.08 0.08 0.08 0.06 0.06 0.07 0.08 0.07 0.06 0.05 0.04 0.04 0.04 0.04 0.04 0.04 0.04 0.02 0.01 0.01 0.01 0.01 0.01 0.02 0.02
0.00 0.00 0.00 0.00 0.00 0.01 0.01 0.01 0.02 0.02 0.01 0.02 0.02 0.02 0.04 0.06 0.07 0.08 0.09 0.08 0.08 0.07 0.06 0.07 0.08 0.07 0.06 0.06 0.05 0.04 0.04 0.04 0.03 0.03 0.04 0.03 0.02 0.01 0.01 0.01 0.02 0.02 0.02
0.00 0.00 0.00 0.00 0.00 0.01 0.01 0.01 0.01 0.02 0.02 0.02 0.02 0.03 0.03 0.05 0.06 0.05 0.07 0.08 0.08 0.07 0.07 0.06 0.07 0.07 0.07 0.06 0.06 0.05 0.04 0.04 0.03 0.03 0.03 0.03 0.02 0.02 0.02 0.02 0.02 0.02 0.02
0.00 0.00 0.00 0.00 0.00 0.01 0.01 0.01 0.01 0.01 0.01 0.02 0.02 0.03 0.03 0.03 0.05 0.06 0.05 0.06 0.08 0.08 0.06 0.06 0.06 0.06 0.06 0.06 0.06 0.06 0.05 0.05 0.04 0.03 0.03 0.03 0.03 0.03 0.02 0.03 0.02 0.02 0.02
0.01 0.01 0.00 0.00 0.01 0.01 0.01 0.02 0.01 0.01 0.01 0.02 0.02 0.01 0.02 0.03 0.03 0.04 0.05 0.05 0.06 0.07 0.07 0.06 0.05 0.04 0.04 0.05 0.05 0.06 0.05 0.05 0.05 0.04 0.03 0.03 0.03 0.02 0.02 0.03 0.03 0.03 0.02
0.01 0.01 0.01 0.01 0.01 0.01 0.01 0.02 0.02 0.01 0.01 0.02 0.03 0.02 0.01 0.02 0.03 0.03 0.04 0.04 0.05 0.06 0.07 0.06 0.06 0.05 0.03 0.03 0.04 0.05 0.05 0.04 0.04 0.05 0.05 0.04 0.03 0.03 0.03 0.03 0.03 0.03 0.03
0.00 0.00 0.00 0.01 0.01 0.01 0.01 0.02 0.02 0.03 0.02 0.02 0.03 0.03 0.02 0.02 0.03 0.03 0.04 0.04 0.04 0.05 0.06 0.05 0.06 0.06 0.05 0.04 0.04 0.04 0.05 0.04 0.04 0.04 0.05 0.05 0.05 0.04 0.04 0.04 0.04 0.04 0.03
0.01 0.01 0.01 0.01 0.01 0.01 0.01 0.02 0.02 0.03 0.03 0.02 0.02 0.03 0.03 0.03 0.02 0.03 0.03 0.04 0.05 0.04 0.04 0.05 0.05 0.04 0.04 0.05 0.04 0.03 0.03 0.03 0.04 0.04 0.04 0.04 0.04 0.04 0.04 0.04 0.05 0.04 0.04
0.01 0.01 0.01 0.01 0.01 0.01 0.01 0.02 0.02 0.03 0.04 0.04 0.03 0.03 0.03 0.03 0.02 0.02 0.03 0.04 0.05 0.05 0.04 0.04 0.04 0.03 0.03 0.04 0.04 0.04 0.03 0.03 0.04 0.04 0.03 0.03 0.03 0.04 0.04 0.04 0.04 0.04 0.04
0.01 0.01 0.02 0.02 0.02 0.02 0.02 0.02 0.03 0.04 0.04 0.04 0.04 0.03 0.03 0.02 0.02 0.03 0.03 0.04 0.04 0.05 0.05 0.05 0.05 0.04 0.04 0.04 0.04 0.04 0.04 0.04 0.04 0.04 0.03 0.03 0.03 0.04 0.04 0.04 0.04 0.04 0.04
0.01 0.01 0.02 0.02 0.02 0.02 0.02 0.03 0.03 0.04 0.05 0.04 0.05 0.04 0.03 0.02 0.02 0.02 0.03 0.04 0.04 0.05 0.05 0.05 0.05 0.04 0.04 0.04 0.04 0.04 0.05 0.05 0.04 0.04 0.04 0.04 0.04 0.04 0.04 0.04 0.04 0.05 0.05
0.01 0.01 0.02 0.02 0.02 0.02 0.02 0.03 0.04 0.05 0.05 0.06 0.06 0.05 0.04 0.04 0.03 0.02 0.03 0.04 0.05 0.05 0.05 0.05 0.05 0.04 0.03 0.03 0.04 0.04 0.05 0.05 0.05 0.04 0.04 0.04 0.04 0.05 0.05 0.05 0.05 0.04 0.04
0.01 0.01 0.02 0.02 0.03 0.03 0.03 0.03 0.04 0.04 0.05 0.06 0.06 0.06 0.05 0.05 0.03 0.03 0.03 0.03 0.03 0.05 0.06 0.06 0.05 0.05 0.04 0.04 0.04 0.05 0.05 0.04 0.04 0.05 0.04 0.03 0.03 0.04 0.05 0.04 0.04 0.04 0.04
0.01 0.01 0.02 0.02 0.02 0.03 0.03 0.03 0.04 0.05 0.05 0.07 0.07 0.06 0.05 0.05 0.04 0.03 0.03 0.03 0.03 0.03 0.04 0.05 0.06 0.05 0.05 0.05 0.05 0.05 0.05 0.05 0.04 0.04 0.04 0.04 0.04 0.04 0.04 0.04 0.04 0.04 0.04
0.01 0.01 0.01 0.02 0.02 0.03 0.03 0.04 0.04 0.04 0.05 0.07 0.07 0.06 0.05 0.05 0.05 0.04 0.03 0.03 0.03 0.02 0.02 0.03 0.05 0.05 0.05 0.05 0.05 0.06 0.06 0.06 0.05 0.05 0.04 0.05 0.05 0.06 0.05 0.04 0.04 0.03 0.03
0.02 0.02 0.02 0.02 0.03 0.03 0.03 0.04 0.04 0.04 0.05 0.07 0.08 0.07 0.06 0.05 0.05 0.05 0.04 0.03 0.03 0.02 0.02 0.02 0.03 0.04 0.05 0.05 0.05 0.05 0.06 0.05 0.05 0.05 0.05 0.04 0.04 0.05 0.06 0.05 0.04 0.03 0.03
0.02 0.02 0.02 0.02 0.02 0.02 0.03 0.03 0.04 0.04 0.05 0.07 0.08 0.08 0.07 0.05 0.05 0.04 0.05 0.05 0.04 0.04 0.03 0.03 0.02 0.03 0.04 0.05 0.05 0.05 0.05 0.05 0.05 0.04 0.04 0.04 0.03 0.03 0.03 0.03 0.03 0.03 0.03
MSLP
1010.63 1011.07 1011.54 1012.05 1012.59 1013.20 1013.88 1014.63 1015.46 1016.32 1017.19 1018.03 1018.80 1019.48 1020.05 1020.51 1020.88 1021.20 1021.49 1021.79 1022.12 1022.50 1022.93 1023.39 1023.88 1024.38 1024.89 1025.39 1025.90 1026.41 1026.94 1027.50 1028.07 1028.65 1029.21 1029.72 1030.15 1030.49 1030.70 1030.81 1030.81 1030.73 1030.62
1010.36 1010.81 1011.27 1011.75 1012.27 1012.86 1013.54 1014.30 1015.16 1016.07 1017.01 1017.92 1018.77 1019.51 1020.13 1020.62 1021.01 1021.34 1021.63 1021.92 1022.25 1022.63 1023.05 1023.51 1024.00 1024.49 1024.98 1025.46 1025.94 1026.44 1026.95 1027.51 1028.10 1028.71 1029.32 1029.90 1030.42 1030.83 1031.13 1031.30 1031.36 1031.32 1031.22
1009.95 1010.44 1010.93 1011.42 1011.94 1012.53 1013.21 1013.99 1014.87 1015.83 1016.81 1017.78 1018.67 1019.46 1020.13 1020.66 1021.07 1021.42 1021.72 1022.02 1022.36 1022.73 1023.15 1023.60 1024.07 1024.54 1024.99 1025.43 1025.88 1026.34 1026.84 1027.38 1027.98 1028.61 1029.26 1029.89 1030.47 1030.96 1031.33 1031.58 1031.71 1031.73 1031.68
1009.36 1009.93 1010.48 1011.02 1011.58 1012.20 1012.90 1013.69 1014.59 1015.57 1016.58 1017.57 1018.50 1019.33 1020.02 1020.59 1021.03 1021.41 1021.74 1022.06 1022.41 1022.79 1023.21 1023.66 1024.10 1024.54 1024.96 1025.36 1025.76 1026.18 1026.65 1027.17 1027.75 1028.38 1029.05 1029.71 1030.34 1030.89 1031.32 1031.64 1031.84 1031.93 1031.93
1008.62 1009.29 1009.93 1010.55 1011.18 1011.83 1012.56 1013.38 1014.29 1015.27 1016.28 1017.28 1018.23 1019.07 1019.79 1020.39 1020.87 1021.28 1021.65 1022.01 1022.39 1022.80 1023.23 1023.67 1024.11 1024.52 1024.91 1025.28 1025.64 1026.02 1026.44 1026.93 1027.49 1028.11 1028.77 1029.44 1030.08 1030.66 1031.14 1031.50 1031.76 1031.91 1031.97
1007.77 1008.55 1009.30 1010.01 1010.71 1011.42 1012.18 1013.01 1013.92 1014.90 1015.90 1016.89 1017.83 1018.68 1019.42 1020.05 1020.58 1021.03 1021.45 1021.86 1022.29 1022.73 1023.19 1023.65 1024.09 1024.49 1024.86 1025.21 1025.54 1025.89 1026.28 1026.74 1027.26 1027.84 1028.48 1029.12 1029.75 1030.33 1030.82 1031.22 1031.52 1031.72 1031.84
1006.89 1007.78 1008.62 1009.43 1010.20 1010.96 1011.75 1012.59 1013.50 1014.45 1015.43 1016.40 1017.32 1018.17 1018.92 1019.58 1020.14 1020.66 1021.14 1021.61 1022.09 1022.58 1023.08 1023.57 1024.03 1024.44 1024.82 1025.16 1025.48 1025.81 1026.18 1026.60 1027.09 1027.63 1028.22 1028.82 1029.42 1029.97 1030.45 1030.86 1031.18 1031.42 1031.60
1006.11 1007.07 1008.00 1008.87 1009.70 1010.50 1011.31 1012.15 1013.03 1013.95 1014.89 1015.83 1016.73 1017.57 1018.32 1019.00 1019.61 1020.17 1020.71 1021.25 1021.79 1022.34 1022.88 1023.41 1023.91 1024.35 1024.75 1025.11 1025.44 1025.77 1026.13 1026.53 1026.98 1027.48 1028.02 1028.58 1029.12 1029.63 1030.09 1030.48 1030.82 1031.08 1031.30
1005.58 1006.58 1007.54 1008.45 1009.31 1010.12 1010.93 1011.74 1012.59 1013.47 1014.36 1015.26 1016.12 1016.94 1017.69 1018.38 1019.02 1019.62 1020.21 1020.79 1021.39 1021.99 1022.59 1023.16 1023.70 1024.19 1024.62 1025.02 1025.38 1025.73 1026.09 1026.48 1026.91 1027.38 1027.87 1028.37 1028.86 1029.33 1029.76 1030.14 1030.47 1030.76 1031.00
1005.43 1006.42 1007.38 1008.29 1009.14 1009.93 1010.71 1011.48 1012.28 1013.09 1013.93 1014.76 1015.58 1016.36 1017.10 1017.78 1018.43 1019.05 1019.66 1020.28 1020.91 1021.55 1022.19 1022.80 1023.38 1023.92 1024.40 1024.83 1025.24 1025.62 1026.00 1026.40 1026.82 1027.27 1027.73 1028.19 1028.64 1029.07 1029.47 1029.84 1030.17 1030.47 1030.74
1005.77 1006.72 1007.64 1008.51 1009.31 1010.05 1010.77 1011.47 1012.20 1012.94 1013.69 1014.46 1015.21 1015.93 1016.62 1017.28 1017.91 1018.52 1019.13 1019.75 1020.39 1021.04 1021.69 1022.33 1022.94 1023.51 1024.04 1024.52 1024.97 1025.40 1025.81 1026.23 1026.66 1027.09 1027.54 1027.98 1028.40 1028.81 1029.19 1029.55 1029.89 1030.21 1030.50
1006.62 1007.51 1008.36 1009.15 1009.88 1010.54 1011.17 1011.79 1012.42 1013.06 1013.72 1014.39 1015.06 1015.71 1016.33 1016.92 1017.50 1018.06 1018.64 1019.23 1019.84 1020.47 1021.12 1021.76 1022.39 1022.99 1023.55 1024.08 1024.57 1025.04 1025.49 1025.93 1026.37 1026.82 1027.26 1027.69 1028.10 1028.50 1028.89 1029.25 1029.60 1029.94 1030.26
1007.94 1008.74 1009.51 1010.21 1010.84 1011.41 1011.94 1012.44 1012.96 1013.49 1014.04 1014.59 1015.15 1015.70 1016.22 1016.73 1017.22 1017.71 1018.21 1018.74 1019.30 1019.88 1020.50 1021.12 1021.75 1022.36 1022.94 1023.50 1024.03 1024.54 1025.02 1025.49 1025.96 1026.41 1026.85 1027.29 1027.71 1028.11 1028.50 1028.88 1029.25 1029.61 1029.96
1009.61 1010.33 1011.00 1011.60 1012.12 1012.58 1012.99 1013.38 1013.77 1014.17 1014.58 1015.01 1015.44 1015.86 1016.27 1016.67 1017.06 1017.45 1017.86 1018.30 1018.78 1019.31 1019.87 1020.46 1021.07 1021.68 1022.27 1022.85 1023.40 1023.93 1024.44 1024.94 1025.41 1025.88 1026.33 1026.78 1027.20 1027.62 1028.02 1028.42 1028.81 1029.20 1029.57
1011.46 1012.08 1012.66 1013.16 1013.58 1013.92 1014.21 1014.47 1014.73 1015.00 1015.28 1015.57 1015.86 1016.15 1016.43 1016.70 1016.97 1017.26 1017.57 1017.92 1018.32 1018.77 1019.28 1019.83 1020.40 1021.00 1021.59 1022.17 1022.74 1023.28 1023.80 1024.30 1024.79 1025.26 1025.72 1026.17 1026.61 1027.04 1027.46 1027.87 1028.28 1028.69 1029.09
1013.29 1013.84 1014.32 1014.72 1015.03 1015.27 1015.45 1015.59 1015.72 1015.85 1015.99 1016.14 1016.30 1016.46 1016.61 1016.77 1016.93 1017.11 1017.33 1017.59 1017.92 1018.30 1018.75 1019.26 1019.80 1020.37 1020.95 1021.52 1022.09 1022.63 1023.16 1023.66 1024.15 1024.62 1025.08 1025.53 1025.97 1026.41 1026.84 1027.27 1027.70 1028.12 1028.54
1014.96 1015.42 1015.82 1016.13 1016.34 1016.48 1016.55 1016.58 1016.60 1016.61 1016.62 1016.65 1016.69 1016.73 1016.77 1016.82 1016.90 1016.99 1017.13 1017.33 1017.59 1017.92 1018.33 1018.79 1019.30 1019.85 1020.41 1020.97 1021.52 1022.05 1022.57 1023.06 1023.54 1024.01 1024.46 1024.91 1025.36 1025.80 1026.24 1026.68 1027.11 1027.55 1027.98
1016.36 1016.73 1017.04 1017.26 1017.40 1017.45 1017.43 1017.36 1017.28 1017.18 1017.10 1017.02 1016.96 1016.91 1016.87 1016.85 1016.85 1016.89 1016.98 1017.13 1017.36 1017.66 1018.02 1018.46 1018.94 1019.46 1019.99 1020.53 1021.06 1021.58 1022.08 1022.56 1023.03 1023.49 1023.94 1024.38 1024.83 1025.27 1025.72 1026.16 1026.60 1027.04 1027.48
1017.46 1017.74 1017.96 1018.11 1018.16 1018.14 1018.05 1017.91 1017.74 1017.58 1017.41 1017.26 1017.13 1017.02 1016.93 1016.86 1016.83 1016.84 1016.90 1017.04 1017.24 1017.51 1017.86 1018.27 1018.73 1019.22 1019.72 1020.24 1020.74 1021.24 1021.72 1022.18 1022.64 1023.10 1023.55 1024.00 1024.44 1024.89 1025.34 1025.78 1026.22 1026.66 1027.09
1018.31 1018.50 1018.64 1018.71 1018.70 1018.61 1018.46 1018.27 1018.05 1017.83 1017.62 1017.42 1017.25 1017.10 1016.99 1016.90 1016.86 1016.87 1016.93 1017.06 1017.25 1017.52 1017.85 1018.24 1018.67 1019.13 1019.60 1020.08 1020.56 1021.03 1021.49 1021.95 1022.40 1022.86 1023.31 1023.77 1024.23 1024.69 1025.14 1025.59 1026.02 1026.45 1026.86
1018.98 1019.09 1019.15 1019.16 1019.09 1018.95 1018.76 1018.53 1018.28 1018.03 1017.79 1017.57 1017.39 1017.23 1017.12 1017.04 1017.00 1017.02 1017.09 1017.23 1017.42 1017.69 1018.00 1018.37 1018.77 1019.19 1019.63 1020.08 1020.52 1020.97 1021.41 1021.86 1022.31 1022.78 1023.25 1023.72 1024.20 1024.67 1025.14 1025.58 1026.01 1026.42 1026.81
1019.58 1019.61 1019.61 1019.56 1019.44 1019.27 1019.05 1018.79 1018.53 1018.26 1018.02 1017.80 1017.62 1017.48 1017.37 1017.31 1017.30 1017.33 1017.42 1017.57 1017.77 1018.02 1018.32 1018.66 1019.03 1019.41 1019.81 1020.22 1020.63 1021.05 1021.48 1021.92 1022.38 1022.86 1023.35 1023.85 1024.35 1024.84 1025.31 1025.76 1026.17 1026.56 1026.91
1020.16 1020.14 1020.09 1019.99 1019.84 1019.64 1019.39 1019.13 1018.86 1018.60 1018.37 1018.16 1018.00 1017.87 1017.79 1017.75 1017.76 1017.82 1017.92 1018.08 1018.28 1018.52 1018.80 1019.12 1019.45 1019.80 1020.15 1020.52 1020.90 1021.30 1021.71 1022.15 1022.61 1023.10 1023.62 1024.14 1024.66 1025.17 1025.65 1026.09 1026.49 1026.84 1027.16
1020.77 1020.72 1020.63 1020.49 1020.31 1020.09 1019.84 1019.58 1019.31 1019.07 1018.85 1018.66 1018.52 1018.42 1018.37 1018.36 1018.39 1018.47 1018.59 1018.76 1018.96 1019.19 1019.46 1019.74 1020.04 1020.35 1020.67 1021.01 1021.35 1021.72 1022.13 1022.56 1023.03 1023.53 1024.06 1024.59 1025.13 1025.65 1026.13 1026.56 1026.93 1027.26 1027.53
1021.41 1021.33 1021.21 1021.06 1020.86 1020.62 1020.37 1020.11 1019.86 1019.64 1019.44 1019.29 1019.18 1019.11 1019.08 1019.10 1019.16 1019.26 1019.40 1019.58 1019.78 1020.02 1020.27 1020.53 1020.81 1021.09 1021.38 1021.69 1022.01 1022.36 1022.75 1023.18 1023.64 1024.15 1024.68 1025.22 1025.76 1026.28 1026.74 1027.16 1027.50 1027.78 1028.01
1022.03 1021.94 1021.80 1021.63 1021.42 1021.18 1020.93 1020.69 1020.46 1020.27 1020.11 1019.99 1019.91 1019.88 1019.89 1019.94 1020.03 1020.16 1020.32 1020.51 1020.73 1020.97 1021.22 1021.48 1021.74 1022.01 1022.28 1022.57 1022.88 1023.22 1023.59 1024.01 1024.47 1024.97 1025.50 1026.03 1026.56 1027.06 1027.50 1027.88 1028.19 1028.43 1028.60
Thickness
5532 5534 5535 5536 5538 5539 5540 5543 5545 5547 5550 5552 5553 5555 5556 5558 5559 5561 5563 5565 5566 5566 5566 5566 5565 5565 5565 5563 5562 5560 5558 5555 5554 5552 5547 5546 5548 5549 5549 5550 5551 5552 5552
5520 5523 5525 5526 5528 5530 5531 5534 5535 5538 5540 5542 5544 5547 5547 5548 5550 5552 5553 5555 5557 5557 5558 5558 5557 5557 5556 5555 5554 5553 5550 5547 5547 5546 5541 5537 5537 5538 5539 5540 5541 5542 5543
5512 5514 5515 5516 5518 5521 5522 5525 5526 5528 5530 5532 5534 5536 5537 5538 5540 5541 5543 5545 5547 5548 5549 5550 5550 5549 5549 5548 5547 5547 5546 5542 5539 5540 5538 5534 5533 5528 5528 5530 5531 5532 5533
5503 5505 5506 5507 5509 5512 5513 5515 5517 5519 5520 5522 5523 5526 5528 5529 5531 5532 5533 5535 5537 5538 5539 5541 5541 5541 5540 5539 5539 5539 5539 5537 5533 5531 5531 5530 5529 5524 5520 5520 5521 5522 5523
5495 5497 5498 5499 5500 5502 5503 5505 5507 5509 5510 5512 5514 5515 5517 5518 5520 5521 5523 5524 5526 5528 5529 5530 5531 5531 5531 5531 5531 5530 5530 5530 5528 5525 5523 5520 5519 5518 5516 5512 5510 5511 5513
5485 5487 5488 5488 5489 5491 5492 5494 5496 5499 5500 5502 5504 5505 5507 5508 5508 5511 5512 5514 5515 5516 5518 5520 5521 5522 5522 5522 5522 5522 5522 5521 5521 5519 5518 5516 5514 5511 5508 5505 5502 5501 5502
5474 5475 5476 5477 5478 5479 5481 5483 5485 5488 5489 5491 5492 5495 5496 5498 5499 5501 5503 5504 5505 5506 5508 5509 5511 5512 5512 5512 5512 5512 5512 5512 5512 5511 5510 5510 5510 5508 5504 5500 5494 5491 5491
5463 5465 5466 5467 5467 5469 5471 5472 5474 5476 5478 5479 5481 5483 5485 5487 5489 5491 5493 5494 5496 5497 5498 5499 5500 5502 5502 5502 5502 5503 5503 5502 5502 5502 5501 5500 5500 5499 5498 5495 5489 5482 5480
5454 5454 5456 5457 5457 5459 5460 5461 5463 5465 5466 5468 5470 5471 5474 5476 5478 5480 5481 5484 5485 5486 5487 5488 5489 5491 5492 5492 5492 5493 5493 5493 5492 5492 5491 5491 5490 5490 5490 5488 5486 5480 5475
5443 5443 5444 5446 5447 5448 5449 5450 5452 5454 5455 5457 5458 5461 5462 5464 5466 5468 5469 5472 5474 5475 5476 5477 5478 5480 5481 5482 5482 5482 5482 5482 5482 5482 5481 5480 5480 5480 5479 5478 5476 5474 5471
5432 5432 5432 5434 5435 5436 5437 5438 5440 5441 5444 5446 5447 5448 5450 5452 5454 5455 5457 5459 5462 5464 5465 5466 5467 5469 5470 5471 5472 5472 5472 5472 5472 5471 5471 5470 5470 5469 5467 5466 5465 5463 5460
5420 5420 5421 5421 5422 5424 5425 5426 5428 5430 5432 5433 5435 5436 5438 5439 5441 5443 5445 5447 5450 5452 5454 5454 5456 5457 5458 5460 5461 5461 5461 5462 5462 5461 5461 5460 5459 5458 5457 5455 5454 5452 5450
5409 5408 5408 5409 5410 5411 5412 5414 5415 5417 5419 5421 5423 5424 5426 5427 5429 5431 5433 5436 5438 5440 5442 5443 5444 5446 5447 5448 5449 5450 5451 5451 5451 5451 5451 5449 5448 5447 5446 5444 5443 5440 5439
5397 5397 5396 5397 5398 5398 5399 5401 5403 5405 5407 5409 5411 5413 5414 5416 5418 5419 5421 5424 5427 5428 5430 5432 5433 5434 5435 5436 5437 5438 5439 5439 5439 5440 5439 5439 5438 5437 5435 5433 5431 5429 5426
5386 5386 5385 5385 5385 5387 5388 5389 5391 5393 5396 5398 5400 5401 5403 5405 5406 5408 5410 5412 5414 5417 5419 5420 5421 5422 5423 5425 5426 5426 5427 5427 5427 5427 5427 5427 5427 5426 5425 5423 5420 5418 5415
5374 5374 5374 5374 5374 5375 5377 5378 5380 5382 5384 5387 5388 5390 5391 5393 5395 5396 5398 5399 5401 5404 5406 5408 5409 5410 5411 5413 5415 5415 5414 5414 5415 5415 5415 5415 5414 5414 5413 5411 5410 5408 5405
5362 5362 5362 5363 5363 5363 5365 5366 5368 5370 5373 5375 5377 5378 5380 5381 5383 5385 5386 5387 5389 5392 5394 5395 5397 5398 5399 5401 5402 5403 5403 5402 5402 5402 5402 5401 5400 5400 5398 5397 5396 5395 5393
5352 5352 5351 5352 5352 5352 5353 5355 5357 5360 5362 5363 5365 5367 5368 5370 5372 5373 5374 5376 5377 5379 5381 5384 5385 5386 5387 5388 5390 5390 5390 5389 5390 5390 5389 5388 5387 5386 5385 5383 5381 5380 5379
5343 5341 5341 5341 5341 5342 5343 5344 5346 5348 5350 5352 5354 5356 5357 5359 5360 5361 5362 5364 5365 5367 5369 5371 5372 5373 5374 5375 5377 5378 5377 5376 5376 5376 5375 5375 5374 5373 5372 5370 5368 5366 5364
5333 5332 5331 5331 5331 5332 5333 5334 5335 5336 5338 5341 5343 5345 5346 5347 5349 5350 5350 5352 5354 5355 5356 5358 5359 5360 5361 5362 5364 5364 5364 5363 5362 5361 5360 5361 5360 5359 5358 5357 5355 5352 5350
5323 5323 5322 5322 5322 5323 5324 5324 5325 5326 5328 5330 5332 5333 5335 5336 5337 5338 5338 5340 5341 5342 5343 5343 5345 5346 5347 5349 5350 5351 5350 5349 5348 5347 5346 5345 5345 5345 5345 5343 5341 5340 5337
5313 5313 5312 5312 5313 5314 5315 5315 5315 5317 5318 5319 5321 5322 5323 5324 5325 5325 5326 5327 5328 5328 5328 5328 5329 5331 5332 5335 5336 5337 5338 5337 5336 5334 5332 5331 5331 5331 5331 5329 5328 5326 5324
5303 5303 5303 5303 5303 5303 5305 5304 5305 5306 5307 5308 5309 5310 5311 5312 5313 5314 5315 5314 5314 5315 5315 5315 5315 5316 5318 5319 5321 5323 5323 5322 5321 5320 5319 5319 5318 5317 5315 5314 5313 5311 5308
5294 5293 5293 5293 5293 5294 5294 5294 5295 5296 5297 5297 5298 5299 5299 5300 5301 5302 5302 5302 5302 5302 5302 5302 5303 5303 5304 5305 5306 5306 5306 5306 5305 5305 5304 5303 5302 5301 5299 5298 5296 5294 5292
5286 5285 5284 5284 5284 5284 5283 5284 5284 5285 5285 5286 5286 5287 5288 5288 5288 5289 5289 5290 5290 5291 5291 5290 5291 5291 5291 5292 5293 5293 5292 5291 5290 5289 5288 5286 5284 5283 5282 5280 5278 5276 5275
5277 5277 5276 5276 5274 5274 5273 5274 5274 5274 5275 5275 5275 5275 5276 5276 5276 5276 5275 5276 5277 5278 5278 5279 5279 5279 5280 5280 5280 5280 5280 5278 5277 5274 5271 5269 5268 5267 5265 5263 5262 5260 5258